• Join FlightAware (Why Join?)
  • Login
  • US Flag 
01:31PM EDT


 

Airport Tracker/Info


-or-


 

Live Flight TrackerFlight Track Log ✈ N3730B ✈ 31-May-2012 ✈ KBWI - KDTW

Flight Track Log - Related Links

Times and Time Zones

All times are in EDT time to prevent confusion due to time zone crossing. See the N3730B flight status page for this flight to view local times or setup timezone preferences in your user account.

Time Position Orientation Groundspeed Altitude Reporting Facility
EDT Latitude Longitude Course Direction KTS MPH feet Rate Location/Type
07:01AM 39.1833 -76.7500 286° West 197 227 2,100  Level Potomac TRACON
07:06AM 39.2858 -77.2192 301° West 372 428 13,500 2,340 Climbing Washington Center
07:07AM 39.3406 -77.3386 300° West 402 463 16,000 2,580 Climbing Washington Center
07:08AM 39.3969 -77.4633 300° West 407 468 18,600 1,680 Climbing Washington Center
07:09AM 39.4553 -77.5939 292° West 412 474 19,400 1,620 Climbing Washington Center
07:10AM 39.4989 -77.7322 291° West 412 474 21,900 2,160 Climbing Washington Center
07:11AM 39.5419 -77.8761 291° West 417 480 23,800 1,860 Climbing Washington Center
07:12AM 39.5850 -78.0256 292° West 435 501 25,700 1,800 Climbing Washington Center
07:13AM 39.6511 -78.2347 291° West 437 503 28,300 1,860 Climbing Cleveland Center
07:14AM 39.6936 -78.3817 290° West 443 510 30,400 1,800 Climbing Cleveland Center
07:15AM 39.7403 -78.5447 290° West 443 510 32,000 780 Climbing Cleveland Center
07:16AM 39.7736 -78.6625 291° West 443 510 32,000  Level Cleveland Center
07:17AM 39.8200 -78.8236 291° West 438 504 32,000 -300 Level Cleveland Center
07:18AM 39.8619 -78.9683 293° West 438 504 31,500 -780 Descending Cleveland Center
07:19AM 39.9097 -79.1189 290° West 438 504 30,500 -780 Descending Cleveland Center
07:20AM 39.9492 -79.2642 296° West 438 504 30,000 -300 Descending Cleveland Center
07:21AM 40.0006 -79.4042 303° West 438 504 30,000  Level Cleveland Center
07:22AM 40.0667 -79.5358 304° West 433 498 30,000  Level Cleveland Center
07:23AM 40.1344 -79.6653 304° West 433 498 30,000  Level Cleveland Center
07:24AM 40.2019 -79.7975 303° West 438 504 30,000  Level Cleveland Center
07:25AM 40.2675 -79.9300 303° West 438 504 30,000  Level Cleveland Center
07:26AM 40.3328 -80.0628 303° West 433 498 30,000  Level Cleveland Center
07:27AM 40.3981 -80.1933 303° West 439 505 30,000  Level Cleveland Center
07:28AM 40.4650 -80.3267 304° West 439 505 30,000 -120 Level Cleveland Center
07:29AM 40.5403 -80.4711 303° West 434 499 29,800 -600 Descending Cleveland Center
07:30AM 40.6069 -80.6050 303° West 434 499 28,800 -900 Descending Cleveland Center
07:31AM 40.6736 -80.7419 303° West 439 505 28,000 -420 Descending Cleveland Center
07:32AM 40.7381 -80.8736 303° West 439 505 28,000  Level Cleveland Center
07:33AM 40.8044 -81.0083 303° West 434 499 28,000  Level Cleveland Center
07:34AM 40.8725 -81.1489 302° West 439 505 28,000 -60 Level Cleveland Center
07:35AM 40.9364 -81.2839 303° West 439 505 27,900 -600 Descending Cleveland Center
07:36AM 41.0022 -81.4194 302° West 439 505 26,900 -900 Descending Cleveland Center
07:37AM 41.0617 -81.5442 302° West 439 505 26,100 -960 Descending Cleveland Center
07:38AM 41.1333 -81.6969 302° West 439 505 25,000 -1,080 Descending Cleveland Center
07:39AM 41.1986 -81.8333 303° West 439 505 24,000 -540 Descending Cleveland Center
07:40AM 41.2658 -81.9700 300° West 439 505 24,000  Level Cleveland Center
07:41AM 41.3264 -82.1094 309° West 434 499 24,000  Level Cleveland Center
07:42AM 41.4019 -82.2358 308° West 434 499 24,000 -660 Level Cleveland Center
07:43AM 41.4769 -82.3653 310° West 434 499 22,700 -2,220 Descending Cleveland Center
07:44AM 41.5503 -82.4839 308° West 429 494 19,600 -3,060 Descending Cleveland Center
07:45AM 41.6169 -82.5997 310° West 417 480 16,600 -2,940 Descending Cleveland Center
07:46AM 41.6839 -82.7075 310° West 382 440 13,900 -2,400 Descending Cleveland Center
07:47AM 41.7467 -82.8069 318° Northwest 354 407 11,900 -1,560 Descending Cleveland Center
07:48AM 41.8078 -82.8814 308° West 323 372 10,900 -1,260 Descending Cleveland Center
07:49AM 41.8600 -82.9697 303° West 265 305 9,400 -1,560 Descending Cleveland Center
07:50AM 41.8981 -83.0492 294° West 264 304 7,700 -1,620 Descending Cleveland Center
07:51AM 41.9272 -83.1369 297° West 254 292 6,200 -900 Descending Cleveland Center
07:52AM 41.9547 -83.2106 296° West 254 292 6,000 -420 Descending Cleveland Center
07:53AM 41.9881 -83.3042 294° West 249 287 5,400 -1,020 Descending Cleveland Center
07:54AM 42.0094 -83.3694 328° Northwest 238 274 4,300 -1,020 Descending Cleveland Center
07:56AM 42.0728 -83.4225 11° North 187 215 3,200 -840 Descending Cleveland Center
07:57AM 42.1189 -83.4106 28° Northeast 169 194 2,400 -840 Descending Cleveland Center
07:57AM 42.1486 -83.3894 31° Northeast 140 161 1,700 -840 Descending Cleveland Center
07:58AM 42.1783 -83.3656 15° North 140 161 1,000 -780 Descending Cleveland Center
08:06AM 42.9875 -83.0732 15° North  Level Estimated